Regional Weather Roundup
Issued by NWS

Home | Current Version | Previous Version | Text Only | Print | Product List | Glossary Off
Versions: 1 2 3 4 5 6 7 8 9 10 11 12 13 14 15 16 17 18 19 20 21 22 23 24 25 26 27 28 29 30 31 32 33 34 35 36 37 38 39 40 41 42 43 44 45 46 47 48

292
ASUS45 KCYS 061110
RWRWY

WYOMING REGIONAL WEATHER ROUNDUP
NATIONAL WEATHER SERVICE CHEYENNE WY
400 AM MST SAT FEB 06 2016

NOTE:  "FAIR" INDICATES FEW OR NO CLOUDS BELOW 12,000 FEET
WITH NO SIGNIFICANT WEATHER AND/OR OBSTRUCTIONS TO VISIBILITY.

WYZ001-061200-
YELLOWSTONE NATIONAL PARK

CITY           SKY/WX    TMP DP  RH WIND       PRES   REMARKS
LK YELLOWSTONE   N/A     21  16  81 CALM      30.32F
W YELLOWSTONE  NOT AVBL

$$
WYZ002>013-054>058-071-098>099-061200-
NORTHERN WYOMING

CITY           SKY/WX    TMP DP  RH WIND       PRES   REMARKS
JACKSON        CLOUDY    16  14  93 SE3       30.38F
CODY           FAIR      37  16  41 W13G28    30.12F WCI  29
GREYBULL       FAIR      17  13  84 W7        30.20F WCI   8
WORLAND        FAIR      14  10  84 CALM      30.19F
SHERIDAN       FAIR      29  17  61 VRB3      30.03F
BUFFALO        FAIR      31  16  54 W6        30.04F WCI  25
GILLETTE       FAIR      30  17  58 SW18      30.04F WCI  18
HULETT         FAIR      32  16  51 SW13      30.05F WCI  22
NEWCASTLE      FAIR      19  12  73 CALM      30.12F

$$
WYZ014>020-022>026-101>103-061200-
CENTRAL WYOMING

CITY           SKY/WX    TMP DP  RH WIND       PRES   REMARKS
BIG PINEY      FAIR       9   5  84 N6        30.36S WCI  -1
PINEDALE       FAIR      12   9  85 NW10      30.35S WCI  -1
DUBOIS         FAIR      23  16  74 NW31G37   30.24S WCI   5
LANDER         FAIR      19   8  62 SW13      30.19S WCI   6
RIVERTON       FAIR      17   8  67 W8        30.20F WCI   7
CASPER         FAIR      24  17  74 SW30G41   30.19F WCI   7
DOUGLAS        FAIR      26  15  63 W6          N/A  WCI  19

$$
WYZ021-027>030-104>119-061200-
SOUTHERN WYOMING

CITY           SKY/WX    TMP DP  RH WIND       PRES   REMARKS
EVANSTON       FAIR      13  10  88 SW13      30.42S WCI  -2
FORT BRIDGER   SUNNY     18  14  86 W21       30.41F WCI   1
ROCK SPRINGS   MOCLDY    20  14  77 S12G20    30.36F WCI   8
DIXON          FAIR       2  -2  85 NE3       30.46S
RAWLINS        FAIR      20  10  65 SW20      30.34F WCI   4
SARATOGA       FAIR      12   5  73 SE14      30.36S WCI  -3
LARAMIE        FAIR      18   9  68 SW21      30.23F WCI   1
CHEYENNE       FAIR      28  13  53 W20       30.15F WCI  15
TORRINGTON     FAIR      30  17  58 W15       30.16F WCI  19
PINE BLUFFS    FAIR      25  14  63 W13       30.19S WCI  13

$$




USA.gov is the U.S. government's official web portal to all federal, state and local government web resources and services.